Regional Weather Roundup
Issued by NWS Goodland, KS

Home | Current Version | Previous Version | Graphics & Text | Print | Product List | Glossary On
Versions: 1 2 3 4 5 6 7 8 9 10 11 12 13 14 15 16 17 18 19 20 21 22 23 24 25 26 27 28 29 30 31 32 33 34 35 36 37 38 39 40 41 42 43 44 45 46 47 48 49 50
266
ASUS43 KGLD 250708
RWRGLD

GOODLAND FORECAST AREA HOURLY WEATHER ROUNDUP
NATIONAL WEATHER SERVICE GOODLAND KS
100 AM MDT MON JUL 25 2016

...OFFICIAL OBSERVATIONS...

CITY           SKY/WX    TMP DP  RH WIND       PRES   REMARKS
GOODLAND KS    CLOUDY    64  60  87 S10       30.14F
HILL CITY KS   CLOUDY    75  60  59 W12G29    30.12R
IMPERIAL NEB   CLOUDY    66  60  81 N5        30.15F
MCCOOK NEB     CLOUDY    72  59  63 E7        30.12R
AKRON CO       CLEAR     61  56  83 S13       30.21F
BURLINGTON CO  CLOUDY    63  57  81 SE8       30.19F
LIMON CO       CLEAR     57  55  93 S6        30.27F
$$

...UNOFFICIAL OBSERVATIONS...

CITY           SKY/WX    TMP DP  RH WIND       PRES   REMARKS
COLBY KS       PTCLDY    66  66 100 SE15      30.08F
LENORA KS        N/A     71  32  23 MISG        N/A
NORTON KS      CLEAR     70  54  56 E6        30.07F
SHARON SPRINGS   N/A     64  62  92 NE12        N/A
KIT CARSON CO    N/A     63  57  82 CALM        N/A
YUMA CO          N/A     62  58  88 SW5         N/A
$$




USA.gov is the U.S. government's official web portal to all federal, state and local government web resources and services.